CZ-6A DEB, 54976

Orbit data source: Space-Track

CZ-6A DEB, 54976 is space debris in SSO originally from a launch on Fri, 11 Nov 2022 UTC launched from the Taiyaun Space Center, China (TSC). Debris objects in space refer to the collection of defunct objects orbiting the Earth. Examples of debris include non-operational satellites, rocket bodies, and fragments generated from explosions, collisions, or faulty payload assembly.

Loading next visibility...
Identifier
54976, 2022-151TR
Orbit
SSO
Country
Flag of CNCN / PRC
Related business
Manufacturer
SAST
Mission
Spacecraft
Bus & Motor
Unknown
Mass
Unknown
Launch date (UTC)
2022-11-11 (4 years ago)
Launch vehicle
Unknown
Launch site
Taiyaun Space Center, China (TSC)
Object type
Payload
Rocket body
Debris
Shape & HBR
Unknown shape, 0.1 m
Radar Cross Section
Small (<0.1 m²)

Expand to show TLE details & history
Last TLE update: 2 days ago

TLE from 2 days ago
0 CZ-6A DEB
1 54976U 22151TR  26170.94939462  .00001616  00000-0  83128-3 0  9993
2 54976  98.8450 175.1683 0052999 329.0976  30.7082 14.15965844184907
Epoch: 2026-06-19T22:47Z
TLE epoch observation values (Epoch: 2026-06-19T22:47:07.695Z)
Latitude
0.00001°
Longitude
-74.7848°
Altitude
809.093 km
Speed
7.466 km/s
True Right ascension
11h 40m 40s
True Declination
0° 00' 00"
Sunlit
Object was in daylight at epoch
Visualization orbit readout
Latitude
Unknown
Longitude
Unknown
Altitude
Unknown
Speed
Unknown
Apparent Right ascension
Unknown
Apparent Declination
Unknown
Sunlit
N/A
Visualization observer readout
Local Sidereal Time
21:24:56
Azimuth
Unknown
Elevation
Unknown
Doppler factor
Unknown
Orbital elements
Apogee altitude
874.434 km
Perigee altitude
797.963 km
Semi-major axis
7,214.336 km
Eccentricity
0.0053
Inclination
98.845°
RAAN
175.1683°
Arg. of periapsis
329.0976°
True anomaly
31.02011°
Mean anomaly
30.7082°
Eccentric anomaly
30.86398°
Mean motion
3.542 °/min
Orbital period
101.64 mins
BSTAR
0.00083128
Loading maneuver chart data...
Computing Atmospheric mass density...
Loading historical data...
Loading historical data...
Loading historical data...
Loading historical data...
Loading historical data...
Loading historical data...
Loading historical data...

Documentation

Showing up to 5 results
|